Theta_e
344 343 343 343 343 343 346 348 348 349 348 349 348 347 347 348 347 347 347 347 347 344 342 342 344 342 346 344 346 346 345 346 345 346 346 344 346 346 346 346 344 342 343 343 343 343 343 343 344 344 344 343 340 331 330 331 332 335 335 336 337 337
343 343 343 344 344 344 346 346 346 346 347 348 348 348 346 344 348 343 347 345 342 344 340 337 336 347 341 342 343 346 345 345 345 345 345 345 345 345 346 346 344 343 343 343 343 334 334 337 340 342 344 341 332 331 330 331 331 332 332 332 334 337
342 342 343 344 344 345 345 345 345 345 346 347 348 348 345 346 342 341 342 341 343 341 338 337 338 342 341 345 342 346 346 345 345 345 345 344 345 345 345 345 345 344 344 343 335 331 329 329 328 337 339 332 330 331 330 330 330 330 330 332 331 339
340 341 342 343 344 344 344 344 344 344 344 344 345 345 343 343 341 340 341 338 338 339 340 336 347 347 347 339 339 346 346 345 345 345 345 344 344 345 345 345 346 345 343 339 331 330 330 329 328 328 327 328 331 330 329 329 329 329 330 335 334 339
340 341 341 342 343 342 343 343 343 343 343 343 343 342 342 340 339 339 339 339 338 340 341 340 338 335 337 336 334 334 335 336 334 334 343 333 334 338 338 335 336 338 334 333 333 332 330 330 331 330 329 329 332 330 330 331 330 329 330 332 335 338
340 340 341 341 341 342 343 341 341 342 341 341 341 339 337 336 336 336 336 339 342 340 339 338 337 335 333 334 336 333 332 331 332 332 336 332 332 331 332 333 334 336 336 334 333 333 330 334 332 330 330 330 333 330 330 330 330 329 330 331 336 338
339 339 340 339 340 341 340 339 339 340 340 338 338 336 335 335 335 336 337 340 340 337 336 335 334 333 333 334 334 334 332 331 330 329 332 333 331 330 333 334 335 335 334 333 334 334 333 333 332 333 332 331 332 329 329 329 329 329 330 332 337 338
338 339 339 338 337 337 337 337 339 342 339 340 337 335 334 333 335 336 338 341 341 336 335 334 334 333 334 332 332 333 333 332 332 332 331 332 333 330 330 333 336 337 335 334 334 335 334 334 334 334 334 331 330 329 329 329 329 329 330 331 334 337
337 338 337 337 336 336 336 336 338 338 337 343 335 334 334 334 334 337 338 341 340 335 334 334 333 333 332 332 332 333 333 332 332 332 332 332 333 331 330 334 335 336 335 334 332 333 333 335 334 332 331 330 330 329 329 329 329 329 328 328 331 335
337 337 337 336 335 335 335 336 336 336 338 340 335 335 335 335 335 336 337 339 339 336 334 334 333 333 333 332 331 332 333 333 332 332 331 330 330 331 330 331 334 336 337 335 333 333 333 334 334 333 330 329 330 330 329 329 328 328 328 329 330 333
337 339 336 335 334 335 336 335 336 336 339 337 336 337 337 335 335 336 338 338 338 337 334 334 334 333 333 332 331 330 332 332 333 333 333 332 329 330 331 330 332 333 335 334 333 333 334 334 333 333 332 329 330 330 329 329 329 328 328 328 329 331
336 337 336 335 337 336 336 336 337 337 337 337 337 336 336 335 338 337 338 338 337 337 336 333 333 333 333 332 332 332 331 332 333 333 334 333 332 332 331 332 333 333 333 332 332 332 334 332 331 330 330 329 331 330 329 329 328 328 328 329 329 329
336 335 334 334 334 335 335 337 337 336 337 338 337 336 335 336 336 337 338 338 335 336 335 334 333 334 336 332 332 332 332 332 333 333 333 333 332 332 331 332 333 334 333 332 331 334 335 333 331 331 330 332 331 331 330 329 328 328 329 329 328 328
335 334 334 333 334 333 333 335 337 336 340 336 336 335 336 335 337 336 336 335 335 335 336 334 334 333 333 332 331 332 333 333 333 333 333 333 333 332 331 331 332 332 334 331 331 333 333 332 331 328 329 330 330 331 330 331 330 329 330 330 330 328
336 333 336 333 333 332 333 334 334 335 336 336 337 336 336 336 335 335 336 335 336 336 336 335 334 334 333 333 332 331 332 333 333 333 334 334 333 332 332 331 332 330 329 329 330 333 333 330 326 328 327 329 330 331 331 331 331 331 331 330 329 329
334 333 331 332 331 331 333 333 333 340 336 335 337 336 336 336 338 336 336 335 336 336 336 335 335 334 333 333 333 331 332 333 334 333 334 332 333 332 331 331 332 331 328 330 329 329 332 328 326 328 328 330 329 330 330 331 331 331 332 331 330 329
333 332 332 332 331 332 334 334 334 336 335 335 336 335 337 336 338 337 337 334 335 336 335 335 335 335 333 333 332 333 331 333 334 333 333 332 332 332 331 332 331 333 330 328 329 329 330 328 328 328 329 327 328 330 330 330 331 331 332 330 329 329
333 333 332 333 334 334 335 334 334 335 339 335 335 336 336 339 337 335 335 335 335 336 336 335 335 335 334 335 334 332 331 333 333 332 332 331 331 330 330 331 330 329 328 327 326 326 326 327 328 327 327 327 328 328 328 329 331 335 331 330 329 327
333 332 332 334 335 334 335 335 333 334 335 334 334 336 335 335 336 336 336 337 336 336 337 335 335 335 334 335 334 332 333 332 333 333 332 329 330 331 331 331 331 329 328 328 328 329 328 326 327 326 326 326 328 328 328 329 328 330 331 330 330 329
332 332 332 333 335 334 332 332 332 332 332 332 333 334 334 334 334 336 338 338 337 337 337 337 335 334 333 333 332 332 331 332 332 332 331 330 329 329 329 329 327 327 326 327 329 328 329 328 326 326 326 325 326 327 327 329 330 330 330 330 331 331
332 333 334 334 335 335 331 330 330 330 330 331 333 334 333 334 335 334 337 339 339 338 337 336 335 333 333 335 334 332 331 331 331 332 331 331 331 329 329 329 327 326 327 324 325 327 327 328 324 322 323 324 326 327 329 329 328 328 329 329 329 329
332 333 333 332 332 332 329 328 327 328 330 331 332 333 333 334 335 337 336 337 338 337 337 336 336 333 333 332 332 331 331 331 331 332 332 331 328 331 328 327 328 324 326 325 324 326 327 328 322 321 318 317 319 322 327 328 326 326 328 328 328 328
330 332 331 332 332 332 331 333 331 331 334 330 332 335 334 336 336 337 336 336 337 336 336 336 335 334 333 332 332 332 332 331 331 332 332 332 330 330 329 329 328 327 323 324 325 327 326 327 323 322 320 318 314 315 318 324 326 327 329 327 327 327
330 331 331 334 333 333 333 334 333 334 332 330 331 336 333 333 334 333 334 335 335 335 335 335 334 333 334 332 332 333 332 331 331 332 331 330 330 330 328 328 328 328 326 324 325 325 328 327 325 322 316 317 314 315 311 316 322 327 331 328 327 326
332 331 332 334 332 330 331 331 330 330 327 328 328 327 328 328 329 332 334 332 335 334 335 335 333 333 334 333 332 332 332 332 331 331 331 330 329 329 330 330 330 329 327 326 323 323 326 328 326 327 322 316 313 312 313 315 321 323 327 326 327 327
331 330 331 330 330 330 330 328 326 326 324 324 326 325 325 327 327 329 333 334 334 335 335 333 333 333 334 334 332 333 332 331 330 331 331 331 331 330 330 330 331 331 330 328 327 322 322 326 327 327 326 324 322 316 315 317 320 316 325 327 326 328
330 329 329 329 329 329 327 327 325 324 324 324 324 324 326 328 328 330 332 331 334 333 334 334 333 333 333 334 333 333 332 332 332 331 332 331 331 331 331 332 332 331 331 330 327 325 325 324 326 327 327 326 326 325 324 321 317 318 316 322 325 325
328 329 328 328 328 327 327 326 326 325 327 325 325 325 327 329 328 330 329 330 330 331 331 333 332 332 333 334 334 333 333 332 332 332 332 332 332 332 331 332 331 331 331 331 329 328 327 326 323 324 327 326 326 327 327 325 324 321 319 317 318 325
329 328 328 329 330 330 329 327 326 327 327 328 327 328 328 329 330 328 330 328 330 331 331 332 333 332 332 334 334 333 332 331 331 331 332 332 332 331 331 331 330 330 331 331 329 329 327 327 325 325 325 325 326 325 325 324 325 323 318 318 318 320
326 326 326 326 327 328 330 331 330 328 327 327 329 330 329 328 329 330 330 329 331 330 330 331 330 332 331 333 332 332 331 331 330 331 332 331 331 329 330 331 332 330 330 330 331 330 329 328 327 327 326 326 324 324 323 322 323 322 321 321 318 320
326 326 326 327 329 329 330 331 331 331 330 329 329 329 330 330 331 330 328 327 328 332 331 331 331 331 331 332 331 330 329 330 330 331 332 331 330 330 330 330 332 332 331 330 330 331 329 329 328 327 326 325 325 324 323 320 320 321 320 318 318 320
323 324 326 326 327 328 328 329 330 330 329 329 329 328 328 328 329 329 328 326 327 328 330 331 331 330 329 329 330 330 331 330 330 329 327 330 331 331 331 330 329 328 328 329 330 330 330 328 328 326 325 326 325 325 324 323 323 323 322 321 320 319
321 322 323 324 324 325 326 327 328 327 327 327 327 326 326 326 327 328 329 329 329 329 329 327 328 327 328 328 329 330 330 329 329 329 329 330 330 330 330 330 329 329 329 328 328 328 327 327 328 325 324 325 326 325 325 326 326 325 326 324 321 317
321 322 321 321 321 321 323 324 325 324 324 324 324 324 323 323 323 325 327 327 328 329 329 328 327 326 329 329 329 329 330 330 330 330 329 328 329 329 330 329 328 327 327 328 328 327 327 326 326 327 327 325 325 326 327 327 326 326 325 319 318 319
320 321 321 321 322 321 320 321 322 322 321 321 321 320 320 321 321 322 323 323 324 326 326 327 327 328 328 328 329 329 328 328 328 328 328 329 329 328 328 328 328 328 328 328 328 328 327 327 326 327 328 327 325 325 327 328 327 326 326 324 321 321
319 318 319 319 320 321 320 321 322 321 320 320 320 319 320 320 320 320 320 321 321 322 323 323 325 327 329 329 329 328 328 328 328 327 327 328 328 328 328 328 328 328 327 329 328 328 328 329 328 329 328 328 326 326 327 327 327 328 328 327 326 322
318 318 317 315 316 318 319 318 317 318 318 318 319 319 318 317 318 319 319 320 320 321 321 322 324 326 328 330 330 328 328 327 327 327 327 327 327 327 328 327 326 326 326 327 328 328 328 327 328 328 327 327 326 326 326 327 327 327 326 326 325 324
Wind_Speed
7 7 7 7 6 6 10 16 13 15 16 15 14 16 15 15 14 12 11 11 10 6 5 4 6 4 8 4 5 4 5 5 5 5 6 6 6 5 4 4 3 2 2 3 4 4 5 4 3 2 6 8 8 5 5 5 5 5 4 5 5 5
7 8 8 6 6 6 7 11 9 10 10 11 13 13 11 7 9 5 10 8 5 5 5 3 3 5 1 2 4 5 5 5 4 4 3 3 5 4 3 4 3 3 3 4 5 3 3 5 5 3 6 8 5 6 5 5 5 5 5 5 4 6
10 10 10 8 6 7 8 7 8 8 7 9 9 9 6 7 5 5 4 5 4 3 3 2 1 2 2 4 2 4 5 5 4 4 4 2 2 3 3 3 3 3 4 4 3 3 3 3 4 5 7 4 4 5 5 4 4 5 5 5 4 10
12 11 9 7 6 6 6 6 6 6 6 6 6 6 7 7 5 4 4 3 2 2 3 2 4 6 5 2 1 2 4 6 6 6 5 2 0 1 3 3 4 4 3 3 3 3 3 4 4 3 5 2 6 5 5 4 4 4 5 5 6 13
7 7 7 6 6 6 6 7 7 7 6 6 6 6 5 3 3 4 3 3 3 1 3 4 1 1 1 3 2 1 0 0 0 0 2 2 1 1 1 0 1 1 2 2 4 4 3 5 5 5 3 3 4 6 5 4 4 3 4 5 6 13
5 6 6 5 6 6 7 7 7 6 6 4 4 3 2 2 1 2 3 4 3 3 3 4 3 3 1 3 3 3 2 1 0 1 1 2 1 2 2 2 2 2 2 2 3 3 3 3 5 5 2 4 4 5 6 5 5 4 4 5 7 14
5 6 5 2 4 4 4 1 1 1 3 2 2 2 2 2 1 2 3 4 5 4 4 4 4 3 4 3 4 2 2 2 2 2 1 3 3 3 3 3 3 3 3 2 3 3 4 4 3 3 5 3 4 5 6 6 5 4 4 5 6 14
5 5 4 4 3 2 2 1 0 1 2 2 3 3 2 2 1 1 1 3 4 5 5 4 4 4 4 3 3 1 1 1 2 3 3 3 3 3 3 4 3 4 3 3 3 4 4 5 3 2 6 2 5 6 6 6 5 4 5 5 5 12
4 4 3 4 4 4 3 2 2 3 3 3 2 2 3 2 2 0 1 1 4 5 4 4 4 4 3 3 3 3 2 2 2 2 3 4 4 4 4 4 4 4 4 4 4 5 4 5 3 2 5 1 5 6 6 6 6 5 4 5 5 9
5 5 4 5 4 4 3 3 2 3 3 3 3 3 3 4 3 3 3 2 3 5 5 5 4 3 3 4 3 2 3 3 3 3 2 3 4 4 5 5 4 4 4 4 4 5 4 5 5 3 3 2 6 7 6 7 7 6 5 5 5 6
4 4 4 5 4 5 4 4 3 4 4 4 4 4 4 4 4 4 4 3 3 4 4 4 4 4 3 3 2 2 4 3 4 4 4 3 2 4 5 4 4 4 4 5 5 5 4 5 5 3 1 4 5 5 5 6 6 5 5 5 5 5
3 4 4 4 4 5 5 5 4 4 5 4 4 3 4 4 5 5 4 4 3 4 3 3 3 4 4 4 4 4 4 4 5 4 4 4 3 3 3 3 3 2 3 3 4 4 4 5 6 5 1 3 5 5 5 6 6 6 6 5 5 5
4 3 4 4 4 4 4 5 5 5 4 4 4 4 4 5 5 5 4 4 3 3 3 4 4 5 5 4 4 4 4 5 5 5 3 3 3 3 3 4 4 2 2 2 3 4 3 4 5 2 5 5 4 5 2 2 4 5 5 4 4 5
4 4 3 3 3 3 3 3 4 4 3 4 4 5 5 5 4 3 3 2 3 3 4 4 4 4 4 4 4 5 5 5 5 4 4 3 4 3 3 5 6 3 3 3 4 5 4 5 1 4 7 6 4 4 5 4 2 2 5 5 6 3
4 3 3 3 3 3 2 2 3 4 4 5 5 5 4 4 3 3 3 4 3 4 4 4 3 4 4 4 4 4 5 5 4 4 4 4 4 3 4 5 4 5 5 4 4 4 4 2 2 1 4 5 4 4 5 6 5 5 6 7 7 4
4 3 3 2 1 2 2 2 2 4 4 3 2 2 2 2 3 4 4 4 4 4 3 4 3 3 4 4 4 4 4 4 4 3 4 3 4 4 4 4 4 4 4 6 4 5 4 3 2 3 3 6 4 1 4 5 5 6 5 5 5 7
6 4 3 2 2 2 3 3 3 2 1 1 1 1 1 1 3 4 4 4 3 3 3 3 3 3 3 3 3 3 3 3 3 4 4 4 4 4 4 4 4 4 3 4 4 5 3 4 4 4 6 6 4 2 3 5 5 6 6 6 5 5
4 3 3 4 4 4 3 2 2 1 0 1 1 1 2 4 4 4 3 4 3 3 3 4 4 3 3 3 2 3 3 3 3 4 3 3 4 2 3 4 5 3 2 0 2 5 6 1 3 3 6 7 3 2 1 2 5 6 7 7 7 7
5 5 4 4 4 2 1 1 0 0 0 1 1 1 0 1 4 3 4 3 3 4 4 4 4 4 4 4 3 3 3 3 3 3 3 2 4 3 3 3 5 3 2 5 3 3 0 4 1 4 5 7 6 6 6 5 3 4 5 7 7 7
4 5 4 3 3 3 2 2 1 1 1 2 2 2 2 2 1 3 3 4 4 4 4 4 4 3 3 3 3 3 3 2 3 3 4 5 5 4 4 3 3 4 2 4 1 2 2 1 1 2 4 2 2 3 2 2 3 5 5 6 6 5
5 5 5 6 4 3 2 1 0 0 1 1 1 1 3 3 3 3 3 5 5 5 4 4 3 3 4 4 3 2 2 2 3 3 4 5 4 4 3 3 2 2 3 3 4 5 4 1 4 1 2 2 2 2 2 1 5 4 5 5 4 6
5 4 4 3 2 2 1 2 2 2 1 2 2 3 4 4 4 4 3 4 5 5 5 5 4 3 3 3 2 2 3 4 4 4 5 4 3 3 3 2 3 2 3 4 6 6 6 4 2 5 4 2 0 1 3 5 6 5 4 5 5 6
3 4 3 2 3 2 2 1 1 2 3 2 2 3 3 4 3 4 4 4 4 4 5 4 4 3 3 3 3 3 5 5 5 5 5 5 3 4 3 3 4 4 3 2 4 3 5 7 5 1 3 1 4 4 3 4 4 5 6 4 1 2
3 2 2 1 2 1 1 1 1 3 1 1 1 1 2 3 4 3 4 4 3 3 4 4 3 3 3 3 4 5 5 5 6 5 5 4 4 4 3 3 3 4 3 3 3 5 5 6 5 6 3 6 3 2 2 7 6 5 6 5 3 5
4 3 3 3 3 2 2 2 2 2 2 2 2 2 2 3 2 3 3 3 6 3 4 4 3 3 3 4 4 5 6 6 5 5 4 4 4 5 5 5 5 5 6 6 5 3 4 6 8 7 5 3 1 1 4 1 5 3 5 4 7 6
4 3 3 2 2 2 1 1 1 1 1 1 3 3 3 5 5 4 6 4 3 3 3 4 3 3 4 4 5 6 5 5 5 4 4 5 5 5 5 6 6 6 6 6 6 5 5 5 8 9 7 5 5 5 3 2 4 5 3 5 6 6
4 3 3 2 2 2 1 0 1 1 2 2 2 4 3 4 4 4 4 3 4 3 3 4 4 3 4 5 6 5 5 5 5 5 5 6 6 8 7 6 5 5 6 5 5 7 8 6 4 7 7 7 3 1 3 5 5 2 3 3 5 8
4 4 3 2 3 2 2 1 1 1 0 1 3 3 4 3 1 1 2 3 2 3 2 3 4 3 2 3 4 3 4 5 5 5 5 6 8 7 6 5 4 6 6 7 8 8 8 6 7 6 7 8 7 4 2 1 2 3 2 5 5 6
7 5 5 5 5 5 3 2 3 3 4 3 2 2 2 2 3 2 1 2 1 2 3 3 1 0 2 2 3 5 6 5 5 5 5 6 7 5 6 7 7 7 8 7 6 7 7 8 7 9 5 7 8 8 4 3 4 3 3 5 4 8
6 5 4 5 5 5 5 4 5 4 4 5 5 5 4 3 4 2 2 3 3 3 4 4 2 4 4 5 5 6 7 6 6 7 5 5 5 4 7 8 8 7 7 8 7 9 10 9 8 7 6 5 7 7 6 4 4 5 4 4 5 8
4 4 4 4 6 6 5 4 4 4 4 5 4 4 5 5 5 5 4 3 3 4 3 4 4 4 3 5 6 5 5 5 5 6 6 6 7 8 8 8 7 7 8 10 9 8 9 10 9 8 7 7 9 10 10 9 9 7 6 5 5 7
7 6 5 5 5 4 4 4 4 5 5 4 5 5 5 5 5 3 4 3 3 1 3 3 3 4 5 5 5 5 6 6 6 5 5 6 4 7 7 6 6 8 10 10 9 9 9 10 10 8 10 9 7 6 7 7 6 7 8 8 8 7
8 7 6 4 4 4 5 5 5 5 4 4 5 5 4 5 5 5 5 5 5 5 4 3 4 4 6 6 6 6 6 6 6 7 7 7 8 8 9 8 7 8 9 11 10 9 8 10 8 8 10 9 9 8 9 7 8 9 8 6 7 5
6 5 4 5 6 7 7 5 4 5 4 4 4 3 4 4 5 4 4 5 5 5 5 4 5 5 6 6 5 6 6 7 7 7 5 7 8 8 8 8 8 8 9 10 9 8 8 9 9 9 9 8 8 9 9 8 8 7 8 5 4 7
7 6 6 7 6 6 4 4 4 4 4 4 4 4 4 4 4 5 6 5 5 5 5 6 6 7 6 6 6 6 6 6 7 6 4 6 7 7 8 8 8 10 9 8 9 9 10 11 12 12 11 10 10 10 10 7 7 8 9 9 11 10
6 5 5 4 4 3 3 3 3 5 4 4 4 3 4 4 4 3 4 4 5 5 5 5 5 6 7 6 6 6 5 6 6 6 7 7 8 8 8 8 8 8 9 7 9 10 10 10 11 12 11 10 10 11 9 9 8 9 10 9 8 5
5 4 3 3 2 2 3 3 3 3 3 4 4 4 3 4 5 5 4 4 4 5 5 5 6 5 7 7 6 6 6 6 6 6 6 7 7 8 8 8 8 9 9 9 9 10 8 8 9 9 8 11 10 9 9 9 9 8 7 4 4 8
Wind_Direction
165 163 162 165 159 149 154 151 152 157 164 166 163 164 163 160 161 164 164 165 163 158 159 165 165 167 168 155 157 151 147 134 132 131 129 129 130 132 150 150 174 216 262 277 293 304 305 309 327 325 87 84 91 93 113 118 124 127 126 131 133 139
165 171 171 167 160 153 158 155 162 168 171 166 165 165 164 163 165 163 166 167 164 165 164 165 162 173 138 162 163 162 163 148 140 126 115 106 122 132 151 168 196 233 251 272 292 315 320 322 315 313 82 96 106 127 127 133 133 134 133 134 140 147
174 175 174 170 163 160 157 158 171 176 166 164 167 166 165 167 164 164 161 164 167 161 146 146 161 176 141 169 163 178 177 166 154 147 120 108 123 141 159 185 214 238 262 275 299 321 323 315 318 341 77 90 117 129 131 130 134 140 142 141 135 132
175 175 169 173 163 155 152 163 178 173 162 162 173 171 174 172 163 162 164 155 148 143 134 127 194 207 181 141 161 190 195 182 178 174 156 120 152 187 188 200 225 235 275 297 313 317 322 319 320 324 96 101 122 128 131 142 142 156 151 138 134 137
172 165 173 171 162 161 162 172 183 178 168 172 177 173 177 156 158 162 147 151 159 149 133 149 136 17 76 120 112 105 342 98 36 23 111 106 111 229 154 239 270 288 284 297 311 312 323 320 316 318 57 109 137 139 144 141 147 174 159 143 145 142
166 171 180 173 163 168 170 185 185 182 167 174 165 146 107 91 163 153 154 160 149 130 136 138 138 120 97 131 149 169 178 149 134 166 95 122 179 226 208 213 210 247 262 273 287 298 298 291 301 315 332 123 160 152 149 149 158 183 162 146 150 147
169 176 177 140 141 167 170 194 283 167 145 121 77 91 91 94 120 169 169 163 140 138 139 152 159 155 161 156 171 157 166 179 202 197 188 168 198 228 221 215 210 213 229 251 262 272 280 277 261 280 292 133 170 161 155 154 159 175 165 158 157 153
166 174 152 138 139 88 62 59 321 211 70 104 107 107 107 120 152 163 158 159 142 145 150 160 179 177 183 161 174 133 99 160 190 204 199 196 203 222 233 230 224 219 210 222 236 246 249 260 268 262 276 158 166 162 160 155 157 169 168 162 164 161
153 138 112 113 115 90 82 70 32 43 69 111 74 111 142 148 127 269 255 155 141 144 152 164 177 189 169 191 177 170 198 221 189 195 185 210 199 218 225 222 226 223 218 217 217 245 246 258 259 253 259 134 170 160 158 154 157 167 171 169 175 168
144 135 125 105 100 95 92 85 72 84 116 117 161 173 165 156 156 181 217 195 156 156 167 174 176 172 174 204 195 191 204 235 223 209 184 210 219 218 228 227 231 226 223 223 225 238 233 253 258 232 228 148 174 165 169 159 161 168 169 169 174 169
132 133 114 111 114 116 116 117 115 129 141 156 181 182 167 163 164 191 206 201 172 166 167 171 167 168 182 193 199 198 225 235 241 233 218 214 203 220 236 229 230 235 225 218 229 239 233 251 262 255 241 141 169 162 167 160 156 161 165 169 177 170
121 125 118 119 126 138 143 140 140 156 171 174 164 169 175 175 185 193 202 198 189 181 165 170 171 171 177 182 197 204 219 227 238 230 228 229 202 215 217 237 247 246 257 255 247 240 228 231 257 259 300 104 154 162 169 161 158 168 170 170 174 176
125 122 126 139 156 153 149 148 159 179 171 156 160 162 178 193 191 195 200 193 191 178 168 172 189 192 192 189 189 199 208 224 234 232 220 226 225 222 257 264 253 237 291 288 271 259 238 219 240 324 8 31 131 131 119 141 153 166 172 165 176 171
132 132 145 148 152 164 163 158 164 154 161 153 169 176 192 193 195 195 191 195 189 193 190 191 188 201 193 188 187 199 211 222 225 230 222 208 210 193 232 261 268 288 264 265 266 260 232 235 81 62 70 62 71 113 117 102 103 80 57 38 318 315
143 140 150 163 168 174 149 150 145 160 172 176 185 185 186 178 184 192 191 202 202 207 213 214 205 202 207 193 189 198 214 218 210 211 214 210 197 192 193 227 250 269 278 265 253 256 236 200 115 123 128 121 93 111 129 146 148 137 156 183 157 199
137 136 151 156 160 162 160 157 173 190 191 188 182 188 179 176 185 186 190 196 198 207 220 230 229 212 218 203 195 205 218 209 195 197 210 209 197 201 197 208 219 212 251 270 268 261 228 137 175 133 98 79 83 132 171 164 157 149 172 181 197 188
144 148 149 151 160 183 174 193 199 221 178 150 192 194 201 183 179 185 194 195 199 208 224 235 239 236 230 218 203 210 225 217 194 191 208 212 209 205 193 205 218 214 202 262 282 253 219 163 170 172 115 131 179 152 193 165 172 178 170 180 199 216
130 144 154 172 183 185 192 201 243 257 119 204 267 191 200 188 198 199 192 207 202 211 224 228 231 229 238 236 208 200 208 213 207 200 207 214 236 209 198 201 229 218 160 76 40 16 330 194 157 122 103 91 66 39 323 252 186 179 179 182 198 205
146 158 169 175 180 173 154 172 29 17 337 316 320 320 128 178 203 194 210 217 208 217 225 223 224 223 224 233 221 205 200 206 200 209 186 200 248 225 200 209 225 215 127 65 57 98 239 293 89 100 110 139 159 159 180 211 227 186 184 184 196 203
158 169 166 168 163 157 133 134 181 324 340 301 304 313 320 269 245 209 218 215 221 220 225 223 224 224 226 230 227 226 225 205 207 203 203 204 219 211 197 189 216 213 178 92 37 239 148 172 354 75 124 186 187 153 204 207 204 190 186 182 192 185
174 176 174 173 173 153 139 136 356 222 249 270 271 261 277 275 266 234 211 207 215 222 223 227 224 214 225 234 225 234 244 246 218 217 221 227 224 219 200 190 162 218 219 132 231 238 237 163 146 112 52 111 147 183 185 175 251 211 186 182 177 182
171 183 186 168 141 144 177 175 153 165 178 239 263 273 272 279 248 236 214 201 206 213 217 219 218 208 220 214 228 227 235 241 221 226 230 234 230 224 214 198 148 217 244 196 224 220 209 145 228 204 175 144 8 230 215 192 208 232 201 188 182 184
164 171 183 166 142 173 232 161 129 161 168 259 263 243 240 248 247 234 230 218 207 205 212 220 219 211 210 211 211 212 228 231 227 216 220 228 230 242 229 218 196 190 205 234 236 223 211 185 211 128 93 199 213 167 230 219 225 209 202 202 232 201
151 145 153 161 146 181 137 142 97 128 151 136 216 228 243 292 268 269 257 239 237 221 219 225 217 216 219 212 202 213 223 222 227 219 215 221 226 237 240 243 217 215 185 210 210 238 215 206 189 136 191 207 203 158 226 227 207 200 186 158 168 224
130 127 123 123 115 88 63 46 35 26 38 12 8 11 343 299 274 238 243 245 236 213 222 229 226 217 213 210 208 216 219 226 229 230 224 233 231 228 224 224 220 217 206 217 228 208 224 209 214 211 169 113 41 248 225 221 178 229 163 165 205 212
92 88 93 83 80 77 65 120 66 52 354 1 315 305 274 247 251 238 226 223 242 223 217 224 224 225 217 212 218 220 223 229 234 238 229 232 239 241 235 225 219 215 223 216 229 210 226 223 220 224 223 207 163 179 191 199 144 224 178 202 193 195
104 96 91 89 96 90 63 79 158 167 170 200 239 269 263 273 260 267 245 237 232 237 226 218 231 220 218 225 226 227 228 232 236 233 229 230 237 236 235 231 223 219 229 224 219 237 223 215 231 243 232 237 233 191 160 138 203 95 204 194 203 200
64 56 34 48 45 57 97 88 36 339 245 219 205 247 287 301 270 250 282 258 262 253 262 240 231 235 276 273 264 260 245 239 236 236 231 230 237 242 248 250 227 225 234 228 226 233 241 214 210 226 213 231 236 208 199 133 52 185 153 181 204 217
71 62 57 57 56 34 39 13 12 4 352 336 319 301 314 330 2 352 300 313 281 257 250 246 212 43 274 274 280 270 258 248 242 241 231 239 245 253 254 250 241 230 229 227 223 235 246 240 221 230 198 228 232 236 214 198 176 192 193 186 204 187
73 62 55 52 49 39 34 31 41 25 28 4 1 1 22 0 337 339 325 304 284 276 267 270 231 185 204 226 235 240 248 246 245 246 246 254 267 261 248 252 251 243 237 236 225 223 227 233 230 234 222 212 211 222 237 199 221 202 222 207 192 198
79 79 64 57 52 45 37 42 45 42 38 19 3 8 11 11 3 2 353 307 277 262 265 258 263 252 213 197 223 229 237 240 237 235 233 223 218 232 239 237 250 260 247 234 231 227 231 237 230 226 225 221 216 206 206 201 204 201 206 196 197 206
46 41 28 36 58 54 54 43 43 51 38 22 23 17 8 353 346 343 337 327 315 296 281 276 271 268 266 241 236 240 234 232 229 231 227 235 238 246 246 233 232 240 257 257 243 233 229 232 228 221 223 219 224 234 232 213 198 201 207 212 190 192
55 48 48 52 47 31 35 37 49 55 51 36 31 16 1 343 344 336 334 336 336 329 320 313 289 277 269 252 237 240 245 244 246 235 228 226 233 236 253 252 233 232 236 245 244 240 232 235 230 215 223 218 217 215 222 215 205 204 210 198 188 182
55 49 40 49 52 53 50 51 51 53 45 36 27 8 349 350 333 323 343 339 335 326 315 297 292 279 267 261 246 237 232 238 243 243 217 216 228 226 223 234 236 239 236 236 239 233 241 250 245 235 230 229 216 217 222 212 214 213 205 158 201 206
56 40 46 57 64 65 54 47 43 46 40 28 10 357 346 337 333 349 350 344 339 341 338 322 311 291 282 265 256 251 240 237 243 240 228 220 224 235 237 239 247 249 242 233 236 233 229 230 236 235 228 223 218 219 221 211 196 206 213 202 194 196
58 55 64 63 68 82 74 57 46 43 29 20 8 4 352 348 345 342 333 338 330 333 330 320 313 315 304 287 267 255 250 247 244 236 223 225 233 235 238 237 240 240 244 234 237 234 233 228 233 233 229 220 216 217 207 202 206 210 213 209 196 150
75 68 68 87 93 88 74 68 43 44 30 22 23 10 343 330 333 329 332 331 330 319 320 326 321 321 314 305 291 273 266 260 252 241 237 230 235 238 235 233 236 245 250 245 240 242 238 230 235 236 244 233 218 206 203 204 205 204 211 211 186 187